Weather History for Piney Island, NC

Change the Weather History Date:

Friday, May 17, 2013

  Actual Average (KMRH) Record (KMRH)
Temperature  
Mean Temperature 77 °F -  
Max Temperature 82 °F 77 °F 85 °F (1991)
Min Temperature 72 °F 59 °F 41 °F (1984)
Cooling Degree Days 12    
Growing Degree Days 27 (Base 50)    
Moisture  
Dew Point 66 °F    
Average Humidity 72    
Maximum Humidity 87    
Minimum Humidity 54    
Precipitation  
Precipitation 0.00 in - - ()
Sea Level Pressure  
Sea Level Pressure 30.07 in    
Wind  
Wind Speed 9 mph (SSW)    
Max Wind Speed 13 mph    
Max Gust Speed -    
Visibility 10 miles    
Events      
Averages and records for this station are not official NWS values.
T = Trace of Precipitation, MM = Missing Value Source: NWS Daily Summary

Daily Weather History Graph

Daily Weather History Graph

Search for Another Location

Airport:

Trip Planner

Search our weather history database for the weather conditions in past years. The results will help you decide how hot, cold, wet, or windy it might be!

Date:

Astronomy

May. 17, 2013 Rise Set
Actual Time 6:00 AM EDT 8:04 PM EDT
Civil Twilight 5:32 AM EDT 8:32 PM EDT
Nautical Twilight 4:58 AM EDT 9:07 PM EDT
Astronomical Twilight 4:21 AM EDT 9:44 PM EDT
Moon 12:24 PM EDT (5/17) 1:01 AM EDT (5/17)
Length of Visible Light 15h 00m
Length of Day
14h 03m
Waxing Crescent, 45% of the Moon is Illuminated
May 17
Waxing Crescent
May 18
First Quarter
May 25
Full
May 31
Last Quarter
Jun 8
New

Hourly Weather History & Observations

Time (EDT) Temp. Heat Index Dew Point Humidity Pressure Visibility Wind Dir Wind Speed Gust Speed Precip Events Conditions
12:56 AM 75.9 °F - 64.9 °F 69% 29.99 in 10.0 mi WSW 10.4 mph - N/A   Clear
1:56 AM 75.0 °F - 64.9 °F 71% 29.99 in 10.0 mi West 8.1 mph - N/A   Clear
2:56 AM 75.0 °F - 66.9 °F 76% 29.99 in 10.0 mi West 10.4 mph - N/A   Clear
3:56 AM 73.9 °F - 66.0 °F 76% 29.99 in 10.0 mi West 8.1 mph - N/A   Clear
4:56 AM 73.9 °F - 64.9 °F 73% 30.01 in 10.0 mi West 10.4 mph - N/A   Clear
5:56 AM 73.0 °F - 66.0 °F 79% 30.03 in 10.0 mi West 9.2 mph - N/A   Clear
6:56 AM 73.9 °F - 66.0 °F 76% 30.05 in 10.0 mi West 11.5 mph - N/A   Clear
7:56 AM 73.9 °F - 66.0 °F 76% 30.07 in 9.0 mi West 12.7 mph - N/A   Clear
8:56 AM 73.9 °F - 66.0 °F 76% 30.08 in 9.0 mi West 10.4 mph - N/A   Clear
9:56 AM 75.9 °F - 66.0 °F 71% 30.09 in 9.0 mi West 9.2 mph - N/A   Clear
10:56 AM 77.0 °F - 64.0 °F 64% 30.09 in 10.0 mi West 6.9 mph - N/A   Clear
11:56 AM 81.0 °F 82.5 °F 64.0 °F 56% 30.10 in 10.0 mi Calm Calm - N/A   Clear
12:56 PM 80.1 °F 81.2 °F 62.1 °F 54% 30.10 in 10.0 mi ENE 10.4 mph - N/A   Clear
1:56 PM 78.1 °F - 63.0 °F 60% 30.09 in 10.0 mi ENE 10.4 mph - N/A   Clear
3:56 PM 79.0 °F - 66.0 °F 64% 30.09 in 10.0 mi East 9.2 mph - N/A   Clear
4:56 PM 80.1 °F 82.3 °F 66.9 °F 64% 30.08 in 10.0 mi ESE 9.2 mph - N/A   Clear
5:56 PM 79.0 °F - 66.0 °F 64% 30.09 in 10.0 mi ESE 11.5 mph - N/A   Clear
6:56 PM 77.0 °F - 68.0 °F 74% 30.09 in 10.0 mi SE 6.9 mph - N/A   Clear
7:56 PM 75.0 °F - 66.9 °F 76% 30.11 in 9.0 mi ESE 6.9 mph - N/A   Clear
8:56 PM 73.0 °F - 66.9 °F 81% 30.12 in 10.0 mi ESE 9.2 mph - N/A   Clear
9:56 PM 73.0 °F - 66.9 °F 81% 30.14 in 9.0 mi ESE 5.8 mph - N/A   Clear
10:56 PM 73.0 °F - 68.0 °F 84% 30.15 in 9.0 mi East 4.6 mph - N/A   Mostly Cloudy
11:56 PM 72.0 °F - 68.0 °F 87% 30.16 in 9.0 mi ESE 5.8 mph - N/A   Partly Cloudy